Location: Unspecified
(43.4680°N, 87.1740°E)
Time: 21:43:08
(UTC+00:00)

SL-4 R/B - Pass Details

Date: 17 April 2021
Orbit: 427 x 663 km, 51.6° (Epoch: 12 May)

Event Time Altitude Azimuth Distance (km) Brightness Sun altitude
Exits shadow 20:37:20 17° 314° (NW) 1,664 4.5 -26.3°
Maximum altitude 20:40:37 38° 16° (NNE) 1,010 3.7 -25.9°
Drops below altitude 10° 20:45:06 10° 85° (E) 2,067 5.5 -25.4°
Sets 20:47:34 0° 93° (E) 2,960 6.3 -25.1°
